Location: Unspecified
(53.6186°N, 1.3184°W)
Time: 08:26:08
(UTC+01:00)

ISS - Pass Details

Date: 17 September 2017
Orbit: 401 x 407 km, 51.6° (Epoch: 23 September)

Event Time Altitude Azimuth Distance (km) Brightness Sun altitude
Exits shadow 04:12:12 30° 127° (SE) 768 -2.3 -21.4°
Drops below altitude 10° 04:14:05 10° 112° (ESE) 1,471 -0.6 -21.2°
Sets 04:16:11 0° 108° (ESE) 2,331 0.5 -20.9°
